Terug naar catalogus

STARLINK-35830

ActiefCommunicatieVLEO
NORAD 66284·PAYLOAD·🇺🇸 United States

Gelanceerd Oct 31, 2025 vanaf Vandenberg Space Force Base

Loading…

Volgende Passages (komende 24 uur)

TLE

VersSource: CelesTrak SupGP

Epoch: Sep 14, 2026, 22:56 UTC

1 66284C 25247V   26257.95604167 -.00002866  00000+0 -84716-4 0  2576
2 66284  53.1590  29.5983 0001086  77.9758 134.5209 15.34380462    16

Volg STARLINK-35830 in realtime met AllMySat

Download on the App Store